Location: Unspecified
(50.0000°N, 15.0000°E)
Time: 01:13:24
(UTC+01:00)

X-37B - Pass Details

Date: 11 December 2021
Orbit: 334 x 337 km, 45.0° (Epoch: 11 January)

Event Time Altitude Azimuth Distance (km) Brightness Sun altitude
Rises 18:00:35 0° 248° (WSW) 2,101 5.9 -18.6°
Reaches altitude 10° 18:02:44 10° 236° (SW) 1,265 4.2 -18.9°
Enters shadow 18:05:05 28° 180° (S) 671 1.9 -19.3°
